Location: Astronomy Club of Akron Observatory
(40.9700°N, 81.5606°W)
Time: 09:18:51
(UTC-05:00)

Hubble Space Telescope - Pass Details

Date: 31 October 2021
Orbit: 534 x 538 km, 28.5° (Epoch: 09 December)

Event Time Altitude Azimuth Distance (km) Brightness Sun altitude
Rises 20:31:10 0° 236° (SW) 2,662 5.1 -24.7°
Reaches altitude 10° 20:34:19 10° 211° (SSW) 1,772 3.7 -25.3°
Enters shadow 20:35:36 13° 193° (SSW) 1,571 3.2 -25.5°
